Tracking 20369 objects as of 19-Feb-2020
HD Live streaming from Space Station
objects crossing your sky now

FREGAT R/B

Track FREGAT R/B now!
10-day predictions


NORAD ID: 40352
Int'l Code: 2014-083E
Perigee: 7,678.0 km
Apogee: 7,702.7 km
Inclination: 0.1 °
Period: 276.6 minutes
Semi major axis: 14061 km
RCS: Unknown
Launch date: December 18, 2014
Source: Commonwealth of Independent States (former USSR) (CIS)
Launch site: FRENCH GUIANA (FRGUI)

Note: This is a ROCKET BODY
aabbcc
Your satellite tracking list
Your tracking list is empty




NASA's NSSDC Master Catalog

Two Line Element Set (TLE):
1 40352U 14083E   20049.63132608 -.00000027 +00000-0 +00000-0 0  9994
2 40352 000.0566 120.4690 0008779 242.7166 356.8130 05.20671336098347
Source of the keplerian elements: AFSPC